SCP
1 1 0 0 0 0 0 0 0 0 0 0 0 0 0 0 0 0 0 0 0 0 0 0 0 0 0 0 0 0 0 0 0 0 0 0 0 0 0 0 0 0 0
1 0 0 0 0 0 0 0 0 0 0 0 0 0 0 0 0 0 0 0 0 0 0 0 0 0 0 0 0 0 0 0 0 0 0 0 0 0 0 0 0 0 0
0 0 0 0 0 0 0 0 0 0 0 0 0 0 0 0 0 0 0 0 0 0 0 0 0 0 0 0 0 0 0 0 0 0 0 0 0 0 0 0 0 0 0
0 0 0 0 0 0 0 0 0 0 0 0 0 0 0 0 0 0 0 0 0 0 0 0 0 0 0 0 0 0 0 0 0 0 0 0 0 0 0 0 0 0 0
0 0 0 0 0 0 0 0 0 0 0 0 0 0 0 0 0 0 0 0 0 0 0 0 0 0 0 0 0 0 0 0 0 0 0 0 0 0 0 0 0 0 0
0 0 0 0 0 0 0 0 0 0 0 0 0 0 0 0 0 0 0 0 0 0 0 0 0 0 0 0 0 0 0 0 0 0 0 0 0 0 0 0 0 0 0
0 0 0 0 0 0 0 0 0 0 0 0 0 0 0 0 0 0 0 0 0 0 0 0 0 0 0 0 0 0 0 0 0 0 0 0 0 0 0 0 0 0 0
0 0 0 0 0 0 0 0 0 0 0 0 0 0 0 0 0 0 0 0 0 0 0 0 0 0 0 0 0 0 0 0 0 0 0 0 0 0 0 0 0 0 0
0 0 0 0 0 0 0 0 0 0 0 0 0 0 0 0 0 0 0 0 0 0 0 0 0 0 0 0 0 0 0 0 0 0 0 0 0 0 0 0 0 0 0
0 0 0 0 0 0 0 0 0 0 0 0 0 0 0 0 0 0 0 0 0 0 0 0 0 0 0 0 0 0 0 0 0 0 0 0 0 0 0 0 0 0 0
0 0 0 0 0 0 0 0 0 0 0 0 0 0 0 0 0 0 0 0 0 0 0 0 0 0 0 0 0 0 0 0 0 0 0 0 0 0 0 0 0 0 0
0 0 0 0 0 0 0 0 0 0 0 0 0 0 0 0 0 0 0 0 0 0 0 0 0 0 0 0 0 0 0 0 0 0 0 0 0 0 0 0 0 0 0
0 0 0 0 0 0 0 0 0 0 0 0 0 0 0 0 0 0 0 0 0 0 0 0 0 0 0 0 0 0 0 0 0 0 0 0 0 0 0 0 0 0 0
0 0 0 0 0 0 0 0 0 0 0 0 0 0 0 0 0 0 0 0 0 0 0 0 0 0 0 0 0 0 0 0 0 0 0 0 0 0 0 0 0 0 0
0 0 0 0 0 0 0 0 0 0 0 0 0 0 0 0 0 0 0 0 0 0 0 0 0 0 0 0 0 0 0 0 0 0 0 0 0 0 0 0 0 0 0
0 0 0 0 0 0 0 0 0 0 0 0 0 0 0 0 0 0 0 0 0 0 0 0 0 0 0 0 0 0 0 0 0 0 0 0 0 0 0 0 0 0 0
0 0 0 0 0 0 0 0 0 0 0 0 0 0 0 0 0 0 0 0 0 0 0 0 0 0 0 0 0 0 0 0 0 0 0 0 0 0 0 0 0 0 0
0 0 0 0 0 0 0 0 0 0 0 0 0 0 0 0 0 0 0 0 0 0 0 0 0 0 0 0 0 0 0 0 0 0 0 0 0 0 0 0 0 0 0
0 0 0 0 0 0 0 0 0 0 0 0 0 0 0 0 0 0 0 0 0 0 0 0 0 0 0 0 0 0 0 0 0 0 0 0 0 0 0 0 0 0 0
0 0 0 0 0 0 0 0 0 0 0 0 0 0 0 0 0 0 0 0 0 0 0 0 0 0 0 0 0 0 0 0 0 0 0 0 0 0 0 0 0 0 0
0 0 0 0 0 0 0 0 0 0 0 0 0 0 0 0 0 0 0 0 0 0 0 0 0 0 0 0 0 0 0 0 0 0 0 0 0 0 0 0 0 0 0
0 0 0 0 0 0 0 0 0 0 0 0 0 0 0 0 0 0 0 0 0 0 0 0 0 0 0 0 0 0 0 0 0 0 0 0 0 0 0 0 0 0 0
0 0 0 0 0 0 0 0 0 0 0 0 0 0 0 0 0 0 0 0 0 0 0 0 0 0 0 0 0 0 0 0 0 0 0 0 0 0 0 0 0 0 0
0 0 0 0 0 0 0 0 0 0 0 0 0 0 0 0 0 0 0 0 0 0 0 0 0 0 0 0 0 0 0 0 0 0 0 0 0 0 0 0 0 0 0
0 0 0 0 0 0 0 0 0 0 0 0 0 0 0 0 0 0 0 0 0 0 0 0 0 0 0 0 0 0 0 0 0 0 0 0 0 0 0 0 0 0 0
0 0 0 0 0 0 0 0 0 0 0 0 0 0 0 0 0 0 0 0 0 0 0 0 0 0 0 0 0 0 0 0 0 0 0 0 0 0 0 0 0 0 0
Wind_Speed
8 7 7 6 6 5 5 5 4 4 4 4 3 3 4 4 4 4 4 5 5 5 4 4 5 4 3 3 3 2 2 3 4 4 3 3 4 5 5 4 5 5 5
8 7 7 7 6 6 5 5 5 5 5 5 4 4 4 4 4 4 5 5 5 5 5 5 5 4 4 4 3 4 4 4 4 5 3 3 4 5 5 5 5 5 5
8 8 7 7 6 6 6 6 5 5 5 5 4 5 5 5 5 5 5 5 5 6 6 6 6 5 5 4 4 4 4 4 3 4 4 3 3 3 4 4 5 4 5
8 8 8 8 8 7 7 6 6 6 6 5 5 5 5 5 5 5 5 5 5 5 5 5 6 6 6 6 5 6 5 4 4 3 4 3 3 4 2 3 4 3 4
9 9 9 8 7 7 6 6 6 6 7 6 5 5 5 5 5 5 5 5 5 5 5 5 6 8 10 8 6 6 5 4 4 4 4 3 3 3 3 2 3 4 4
10 10 8 7 7 7 7 7 6 6 6 5 6 6 6 5 7 9 7 5 5 5 6 6 6 8 10 11 11 10 9 7 6 5 4 5 6 5 4 3 3 2 4
10 9 8 8 8 8 8 7 7 7 6 6 6 6 6 8 10 11 11 6 6 6 6 6 6 7 7 6 8 10 9 11 12 8 7 8 7 6 5 5 4 4 5
10 9 9 9 9 8 7 7 7 6 6 6 6 6 6 8 11 12 13 8 6 7 7 7 7 7 8 8 7 7 7 7 8 7 8 9 9 7 7 6 6 5 5
10 10 10 9 9 8 8 8 7 6 6 6 5 7 7 8 11 13 12 5 6 8 8 7 7 8 11 12 7 7 8 7 10 12 12 12 12 12 9 4 4 4 5
11 10 9 9 9 9 9 8 6 6 7 6 7 7 8 8 11 13 12 5 6 7 6 7 10 10 11 10 6 6 7 8 6 6 7 8 8 9 11 8 7 6 5
8 7 8 8 9 9 8 6 6 6 6 6 7 7 7 9 11 14 13 7 7 7 6 6 6 10 11 10 8 6 10 8 5 5 6 6 5 5 6 7 7 7 7
6 7 7 7 7 6 6 6 6 6 6 7 7 7 7 8 10 11 14 14 12 8 7 6 7 10 11 10 7 9 13 9 4 4 5 6 6 6 6 7 8 9 10
4 5 5 5 5 5 6 6 5 5 6 6 6 7 7 6 7 13 14 14 15 9 7 10 10 10 9 8 12 14 11 6 5 6 7 8 7 7 6 5 6 7 8
2 2 2 3 4 4 4 5 5 5 6 7 7 8 7 6 6 6 5 6 9 8 7 7 10 11 9 10 10 8 7 6 7 8 7 7 5 5 5 5 5 4 4
2 2 2 3 3 4 4 5 7 7 8 9 8 8 8 8 10 12 8 6 6 5 4 2 2 3 4 5 5 6 6 5 7 7 7 7 6 6 6 5 5 4 5
3 3 3 3 3 4 5 7 10 12 15 16 17 14 10 13 13 13 15 12 10 9 5 3 5 5 6 7 7 6 6 6 7 7 7 7 7 7 7 5 5 5 6
3 3 3 3 4 4 5 6 8 9 11 14 16 17 17 16 15 13 12 10 9 10 5 6 6 7 7 7 7 7 7 6 6 6 7 7 7 7 6 6 6 5 6
4 5 4 4 4 5 5 6 6 7 7 7 10 14 16 16 15 13 10 8 5 6 6 7 7 7 7 7 7 7 7 6 5 6 6 7 7 6 6 7 6 7 6
4 4 4 4 5 5 5 5 6 7 7 7 7 7 10 10 10 9 10 7 7 7 7 8 8 7 7 7 6 6 6 6 6 5 6 6 6 6 7 7 6 8 7
4 8 7 5 5 5 6 6 6 6 6 6 6 6 4 3 3 4 6 7 7 7 6 7 7 7 6 6 6 5 5 5 6 6 6 6 5 6 7 7 6 6 6
4 6 9 7 5 6 6 6 6 6 6 6 6 7 7 4 5 6 5 6 7 7 6 6 6 6 5 5 5 5 6 5 5 5 5 5 5 5 5 6 6 6 6
4 4 5 5 6 6 6 6 6 6 6 7 6 6 7 5 4 4 4 5 6 6 5 5 5 4 4 5 5 5 5 5 5 5 5 5 5 5 5 5 5 5 6
4 5 5 5 5 7 7 5 5 5 6 6 6 6 4 4 4 4 4 4 4 4 4 4 4 4 4 4 4 4 5 5 5 5 5 5 5 5 5 5 6 6 6
4 5 5 5 5 5 5 6 6 6 6 6 6 5 4 4 3 3 3 3 3 3 3 3 3 5 6 4 3 4 4 5 4 4 6 6 6 5 5 5 6 6 6
4 4 5 5 5 5 5 6 6 6 6 6 6 5 4 4 4 3 2 2 2 2 3 2 2 3 5 5 4 4 5 6 6 5 5 5 6 7 6 6 5 5 6
4 5 5 5 5 5 6 6 6 7 6 6 5 5 5 5 4 3 2 1 1 2 2 2 2 3 4 3 4 4 5 5 6 7 5 5 7 7 6 6 7 6 6
Wind_Direction
172 172 168 178 181 179 184 197 198 201 200 206 221 232 239 245 246 234 237 241 241 252 254 245 251 251 250 254 248 238 225 199 242 271 262 280 294 295 299 292 278 264 262
173 171 175 180 179 181 192 202 200 203 209 213 219 226 235 239 238 232 241 241 235 242 248 245 251 253 250 247 242 243 241 224 223 265 279 283 281 281 282 287 283 274 260
172 173 178 184 187 195 203 207 205 205 213 219 218 226 234 237 237 237 237 241 238 237 237 236 245 245 250 247 242 242 243 247 224 238 265 266 274 282 295 294 289 285 278
174 176 185 194 197 201 204 205 206 206 211 220 225 229 232 234 237 242 240 239 241 244 241 238 241 237 240 243 244 241 239 245 242 243 258 267 268 278 283 289 302 299 294
176 183 196 200 199 199 202 206 209 211 216 217 222 229 232 231 231 228 227 229 232 244 250 248 248 249 247 242 240 234 230 231 236 239 254 266 268 275 270 267 280 293 291
182 192 194 193 196 200 204 208 211 217 221 217 219 225 231 235 232 221 215 222 226 234 248 256 261 264 264 264 260 251 228 222 226 229 239 243 254 247 247 255 264 292 295
187 191 190 191 198 204 206 206 212 217 217 219 224 224 231 240 243 239 234 221 225 233 238 248 262 265 267 261 267 270 260 245 229 221 230 239 244 239 236 253 247 241 246
190 193 193 193 201 205 206 211 215 211 211 218 224 227 233 244 244 243 241 228 228 236 236 237 244 260 265 256 256 260 255 254 245 234 229 239 241 237 226 233 241 252 256
196 199 199 196 200 204 210 216 213 209 217 219 221 225 233 248 248 244 237 220 230 242 242 240 239 250 261 264 255 252 259 263 261 249 239 242 246 247 239 234 241 243 264
204 203 200 198 201 207 213 213 210 208 219 223 231 230 232 243 247 243 232 211 230 244 248 246 244 247 256 265 241 235 250 258 261 270 263 262 257 257 251 227 222 229 240
202 198 201 203 208 211 212 211 210 214 222 228 238 241 237 241 251 249 234 207 221 234 241 245 244 245 252 256 241 226 240 251 254 252 258 262 262 256 250 235 222 221 225
189 198 209 212 214 212 212 220 216 215 226 236 242 254 249 245 245 249 241 225 218 220 233 238 239 245 249 251 246 244 252 259 253 252 256 258 256 255 251 243 235 230 230
200 214 220 218 217 212 209 219 223 221 228 240 239 249 255 248 246 245 245 238 226 220 233 237 240 248 252 255 253 254 255 246 235 243 250 253 247 246 249 252 253 244 242
209 234 238 233 238 234 226 222 226 232 236 242 243 247 251 249 243 239 235 234 229 226 236 247 253 257 254 252 258 259 244 231 228 239 247 252 251 244 244 240 247 246 248
8 331 307 280 264 260 254 244 241 240 236 236 241 239 239 244 240 222 210 211 203 205 193 226 247 254 256 255 254 252 246 238 236 240 243 250 249 246 246 236 232 232 233
12 342 317 300 289 280 277 280 263 255 258 249 246 243 242 239 241 228 222 215 199 175 164 218 239 244 249 254 256 257 248 241 240 239 238 240 243 243 246 239 226 227 236
357 325 311 305 297 291 284 280 287 287 273 264 257 250 244 244 241 229 220 209 195 170 190 227 236 243 245 246 248 250 253 248 239 237 240 241 240 240 238 237 231 229 234
346 329 320 304 297 293 290 286 282 283 289 287 276 260 249 244 239 229 204 171 191 194 216 230 238 241 241 242 245 246 250 252 246 242 242 242 238 236 235 234 230 227 231
339 322 314 304 299 294 292 292 290 286 282 282 288 285 263 249 242 223 183 191 214 218 219 228 235 239 240 240 243 244 244 249 251 247 244 242 237 230 234 233 229 231 228
319 317 321 312 306 304 301 298 296 293 291 287 282 277 268 228 217 208 199 212 222 229 227 229 235 238 238 241 243 242 245 248 252 250 249 247 240 230 232 232 227 226 225
307 310 314 314 305 300 299 296 293 291 290 292 286 280 264 237 234 228 213 211 217 224 227 229 234 237 236 237 240 242 244 248 248 249 249 247 240 236 234 232 229 227 225
298 298 300 299 299 300 301 297 295 293 295 297 295 291 275 254 244 240 233 228 223 220 221 219 225 230 231 233 234 238 245 251 252 250 251 250 242 239 237 234 232 228 223
297 301 302 300 300 307 311 310 309 306 303 301 294 289 279 261 256 252 243 235 226 221 218 214 223 238 241 237 230 231 242 251 254 253 258 261 254 243 236 236 236 229 225
299 302 303 305 306 307 308 310 310 310 307 304 303 298 294 284 269 260 245 230 228 226 218 214 228 240 246 246 238 237 244 254 261 258 257 260 262 255 242 238 236 230 227
311 313 313 312 311 310 309 311 311 311 312 310 311 313 310 302 291 286 278 260 251 241 233 227 235 249 254 255 260 262 267 268 268 270 262 256 260 259 251 245 239 235 226
324 325 323 319 318 317 316 315 316 318 317 316 317 321 319 316 310 299 290 277 269 270 271 263 260 265 273 275 280 289 288 282 276 268 261 258 257 258 252 247 240 234 227